Location: Casa Rossa
(45.2389°N, 12.2056°E)
Time: 04:27:58
(UTC+00:00)

Cosmos 1980 Rocket - Pass Details

Date: 14 July 2020
Orbit: 828 x 851 km, 71.0° (Epoch: 11 August)

Event Time Altitude Azimuth Distance (km) Brightness Sun altitude
Rises 01:40:44 0° 334° (NNW) 3,428 5.8 -15.6°
Reaches altitude 10° 01:43:12 10° 336° (NNW) 2,488 5.1 -15.3°
Maximum altitude 01:48:57 80° 64° (ENE) 867 2.3 -14.7°
Drops below altitude 10° 01:54:37 10° 151° (SSE) 2,463 4.4 -14.1°
Sets 01:57:03 0° 153° (SSE) 3,391 5.1 -13.9°
